www.pogodaiklimat.ru

Погода и климат >> Архив погоды >> Южная Африка >> Malmesbury


ПОГОДА в Malmesbury

  • Прогноз погоды в Malmesbury
  • Монитор погоды в Malmesbury
  • Климат города

АРХИВ ПОГОДЫ в Malmesbury

Время (UTC), дата Ветер
(напр.,м/с)
 
Видим.   Явления Облачность Т
(С)
Тd
(С)
f
(%)
Тe
(С)
Тes
(С)
Комфортность P
(гПа)
Po
(гПа)
Тmin
(С)
Tmax
(С)
R
(мм)
R24
(мм)
S
(см)
12 11.12 Ю 3 н/о н/о +29.7 +6.0 22 +28 +28 жарко 855.0 997.2 +11.9 +34.8
15 11.12 Ю 5 н/о н/о +27.3 +8.0 30 +27 +27 жарко 854.1 997.5 +27.2 +34.8
18 11.12 ЮЗ 3 н/о н/о +19.8 +9.7 52 +21 +21 комфорт 852.1 999.3 +19.8 +34.8
21 11.12 Ю 2 н/о н/о +17.9 +9.1 56 +19 +19 852.3 1000.6 +17.9 +34.8
00 12.12 Ю 2 н/о н/о +16.7 +7.7 55 +17 +17 851.7 1000.6 +16.3 +34.8
03 12.12 ЮЗ 1 н/о н/о +14.3 +9.1 71 +15 +15 850.9 1001.0 +14.1 +34.8
06 12.12 Ю 3 н/о н/о +19.6 +7.8 46 +21 +21 комфорт 854.6 1002.2 +14.0
09 12.12 Ю 3 н/о н/о +23.6 +7.8 36 +24 +24 комфорт 856.9 1002.6 +14.0 +23.7
12 12.12 Ю 4 н/о н/о +24.6 +6.5 31 +25 +25 комфорт 856.4 1001.5 +14.0 +25.2
15 12.12 Ю 4 н/о н/о +22.2 +7.7 39 +23 +23 комфорт 854.8 1001.0 +21.9 +25.2
18 12.12 Ю 3 н/о н/о +17.1 +9.1 59 +17 +17 853.1 1002.0 +17.1 +25.2
21 12.12 ЮЗ 3 н/о н/о +15.4 +8.9 65 +15 +15 853.2 1003.0 +15.4 +25.2
00 13.12 ЮЗ 2 н/о н/о +13.5 +9.2 75 +13 +13 851.8 1002.5 +13.3 +25.2
03 13.12 Ю 1 н/о н/о +11.3 +8.1 81 +11 +11 850.4 1002.1 +11.3 +25.2
06 13.12 З 2 н/о н/о +17.0 +9.7 62 +18 +18 854.2 1003.3 +10.3
09 13.12 ЮЗ 2 н/о н/о +18.1 +10.3 60 +19 +19 855.2 1003.8 +10.3 +18.2
12 13.12 ЮЗ 3 н/о н/о +21.3 +9.0 45 +23 +23 комфорт 856.3 1003.2 +10.3 +21.5
15 13.12 З 4 н/о н/о +18.9 +11.3 61 +20 +20 855.6 1003.8 +18.7 +21.5
18 13.12 З 2 н/о н/о +17.3 +13.0 76 +18 +18 855.6 1004.7 +16.8 +21.5
21 13.12 ЮЗ 1 н/о н/о +16.4 +13.3 82 +17 +17 856.8 1006.5 +16.4 +21.5
00 14.12 ЮЗ 1 н/о н/о +15.6 +13.1 85 +16 +16 856.0 1006.1 +15.2 +21.5
03 14.12 ЮЗ 1 н/о н/о +14.9 +12.9 88 +15 +15 855.8 1006.3 +14.8 +21.5
06 14.12 Ю 2 н/о н/о +19.5 +13.3 67 +22 +22 комфорт 858.8 1007.0 +14.8
09 14.12 Ю 1 н/о н/о +24.7 +8.8 36 +25 +25 комфорт 861.0 1006.5 +14.8 +24.9
12 14.12 ЮЗ 4 н/о н/о +25.8 +8.1 32 +26 +26 жарко 859.9 1004.6 +14.8 +28.2
15 14.12 Ю 3 н/о н/о +24.6 +7.0 32 +25 +25 комфорт 858.2 1003.5 +24.5 +28.2
18 14.12 Ю 2 н/о н/о +18.4 +8.4 52 +19 +19 855.5 1003.9 +18.4 +28.2
21 14.12 Ю 2 н/о н/о +16.3 +8.8 61 +17 +17 854.9 1004.4 +16.1 +28.2
00 15.12 штиль 0 н/о н/о +13.2 +8.7 74 +13 +13 852.5 1003.5 +13.2 +28.2
03 15.12 ЮЗ 1 н/о н/о +11.4 +8.1 80 +11 +11 850.8 1002.5 +11.4 +28.2
06 15.12 ЮЗ 2 н/о н/о +19.1 +9.9 55 +21 +21 комфорт 854.7 1002.6 +11.0
09 15.12 З 1 н/о н/о +32.2 +6.8 21 +31 +31 жарко 859.6 1000.9 +11.0 +32.6
12 15.12 ЮЗ 3 н/о н/о +33.7 +8.0 20 +32 +32 жарко 858.2 998.6 +11.0 +37.7
15 15.12 ЮЗ 4 н/о н/о +30.0 +5.6 21 +28 +28 жарко 856.1 998.3 +29.5 +37.7
18 15.12 ЮЗ 2 н/о н/о +20.7 +11.7 56 +23 +23 комфорт 852.4 999.2 +20.7 +37.7
21 15.12 ЮЗ 3 н/о н/о +17.0 +12.9 77 +17 +17 851.6 1000.3 +17.0 +37.7
00 16.12 ЮЗ 2 н/о н/о +16.1 +13.0 82 +16 +16 849.5 998.5 +16.0 +37.7
03 16.12 ЮЗ 2 н/о н/о +15.8 +12.2 79 +16 +16 849.8 999.0 +15.6 +37.7
06 16.12 Ю 2 н/о н/о +19.2 +11.6 61 +21 +21 комфорт 853.4 1001.1 +15.6
09 16.12 Ю 2 н/о н/о +25.5 +9.1 35 +26 +26 жарко 855.9 1000.5 +15.6 +25.9
12 16.12 Ю 3 н/о н/о +28.7 +10.6 32 +29 +29 жарко 856.4 999.3 +15.6 +28.8
15 16.12 ЮЗ 5 н/о н/о +27.8 +12.4 39 +29 +29 жарко 854.7 997.9 +27.3 +29.6
18 16.12 ЮЗ 4 н/о н/о +21.7 +12.9 57 +24 +24 комфорт 853.0 999.3 +21.7 +29.6
21 16.12 Ю 2 н/о н/о +19.7 +11.5 59 +22 +22 комфорт 853.1 1000.5 +19.3 +29.6
00 17.12 ЮВ 2 н/о н/о +18.2 +10.8 62 +19 +19 851.3 999.3 +18.2 +29.6
03 17.12 Ю 1 н/о н/о +14.8 +9.6 71 +15 +15 849.4 999.0 +14.3 +29.6
06 17.12 В 3 н/о н/о +24.2 +10.3 41 +25 +25 комфорт 854.9 1000.1 +13.3
09 17.12 СВ 3 н/о н/о +29.8 +9.6 28 +29 +29 жарко 857.3 999.7 +13.3 +30.1
12 17.12 В 3 н/о н/о +31.7 +11.3 29 +32 +32 жарко 857.3 998.7 +13.3 +32.0
15 17.12 Ю 3 н/о н/о +27.8 +12.0 38 +29 +29 жарко 854.8 998.1 +27.7 +32.0
18 17.12 Ю 2 н/о н/о +20.8 +12.3 58 +24 +24 комфорт 853.4 1000.3 +20.8 +32.0
21 17.12 ЮВ 2 н/о н/о +17.8 +11.6 67 +19 +19 853.2 1001.7 +17.7 +32.0
00 18.12 штиль 0 н/о н/о +16.8 +11.1 69 +17 +17 852.9 1001.9 +16.5 +32.0
03 18.12 ЮЗ 1 н/о н/о +16.6 +11.1 70 +17 +17 853.7 1002.9 +15.2 +32.0
06 18.12 ЮВ 3 н/о н/о +21.8 +10.7 49 +24 +24 комфорт 857.8 1004.6 +15.2
09 18.12 Ю 2 н/о н/о +26.0 +9.1 34 +26 +26 жарко 859.9 1004.6 +15.2 +26.3

 

Местоположение метеостанции Malmesbury (Южная Африка): широта -33.46 долгота 18.72 высота над уровнем моря 102 м.

В архиве по умолчанию представлена погода в Malmesbury за последнюю неделю. Архивные данные за месяц целиком и за предыдущие месяцы, начиная с января 2011 года, Вы можете получить, выбрав интересующий диапазон дат из раскрывающегося списка и нажав кнопку "Ввод!".

Внимание! Время в таблицах - всемирное. Для получения местного времени необходимо прибавить поправку, которая в Malmesbury равна 2 ч.

Смотрите также архив погоды в соседних городах и на ближайших метеорологических станциях:

Погода в Paarl (Южная Африка) (37 км)
Погода в Robben Island (Южная Африка) (50 км)
Погода в Ysterplant (Южная Африка) (53 км)
Погода в Table Bay (Южная Африка) (56 км)
Погода в Cape Town Airport (Южная Африка) (57 км)
Погода в Cape Town Int Airport (Южная Африка) (57 км)
Погода в Cape Town (Южная Африка) (61 км)
Погода в Geelbek (Южная Африка) (63 км)
Погода в Worcester (Южная Африка) (72 км)
Погода в Langebaanweg (Южная Африка) (76 км)

Пояснения к столбцам:

Ветер - указаны скорость ветра в м/с - средняя за 10 мин, порывы в срок и между сроками (в фигурных скобках) и направление, откуда дует ветер: С - северный, СВ - северо-восточный, В - восточный, ЮВ - юго-восточный, Ю - южный, ЮЗ - юго-западный, З - западный, СЗ - северо-западный.
Видимость - горизонтальная дальность видимости в метрах или километрах. При видимости от 1 до 10 км при отсутствии осадков обычно наблюдается дымка, при ухудшении видимости до 1 км и менее - туман. В сухую погоду видимость может ухудшаться дымом, пылью или мглою.
Явления - указаны атмосферные явления, наблюдавшиеся в срок или в последний час перед сроком; фигурными скобками обозначены явления, наблюдавшиеся между сроками (за 1-3 часа до срока); квадратными скобками обозначены град или гололедные отложения с указанием их диаметра в мм.
Облачность - указаны через наклонную черту общая и нижняя облачность в баллах и высота нижней границы облаков в метрах; квадратными скобками обозначены формы облаков: Ci - перистые, Cs - перисто-слоистые, Cc - перисто-кучевые, Ac - высококучевые, As - высокослоистые, Sc - слоисто-кучевые, Ns - слоисто-дождевые, Cu - кучевые, Cb - кучево-дождевые. Подробнее классификацию облаков см. в Атласе облаков (PDF).
T - Температура воздуха - температура, измеренная на высоте 2 м над землей.
Td - Температура точки росы - температура, при понижении до которой содержащийся в воздухе водяной пар достигнет насыщения.
f - Относительная влажность воздуха - влажноcть воздуха, измеренная на высоте 2 м над землей.
Te - Эффективная температура - температура, которую ощущает одетый по сезону человек в тени. Характеристика душности погоды. При расчете учитывается влияние влажности воздуха и скорости ветра на теплоощущения человека.
Tes - Эффективная температура на солнце - температура, которую ощущает человек, с поправкой на солнечный нагрев. Характеристика знойности погоды. Зависит от высоты солнца над горизонтом, облачности и скорости ветра. Ночью, в пасмурную погоду, а также при ветре 12 м/с и более поправка равна нулю.
P - Атмосферное давление - приведенное к уровню моря атмосферное давление.
Po - Атмосферное давление - измеренное на уровне метеостанции атмосферное давление.
Tmin - Минимальная температура - минимум температуры воздуха на высоте 2 м над землей.
Tmax - Максимальная температура - максимум температуры воздуха на высоте 2 м над землей.
R - Количество осадков - Количество выпавших осадков за период времени, мм. При наведении курсора мыши на число - период времени, за который выпало указанное количество осадков.
R24 - Количество осадков - Количество выпавших осадков за 24 часа, мм.
S - Снежный покров - Высота снежного покрова, см. При наведении курсора мыши на число - состояние снежного покрова и степень покрытия местности в баллах.